Weather observations for the past three days for
Samuels Field Airport
Metric (Imperial)
Date Time (edt) Wind (kph) Vis. (km) Weather Sky Cond. Temperature (ºC) Relative Humidity Wind Chill (°C) Heat Index (°C) Pressure Precipitation (cm)
Air Dwpt 6 hour altimeter (cm) sea level (mb) 1 hr 3 hr 6 hr
Max. Min.
09 01:35 S 6 16.09 Overcast BKN150 BKN170 OVC190 13 8.6 75% 75.72 0.0
09 01:15 Calm 16.09 Overcast SCT120 OVC150 13.3 9.8 80% 75.72 0.0
09 00:55 Calm 14.48 Overcast OVC120 13.5 8.8 73% 75.72 0.0
09 00:35 Calm 16.09 Overcast BKN120 OVC170 13.2 9 76% 75.69 0.0
09 00:15 Calm 16.09 Overcast OVC130 14.1 8.2 68% 75.72 0.0
08 23:55 Calm 16.09 Overcast OVC130 14.1 7.7 66% 75.72 0.0
08 23:35 Calm 16.09 Overcast BKN130 OVC350 13.8 8.1 69% 75.72 0.0
08 23:15 Calm 16.09 Overcast OVC130 14 8.5 70% 75.74 0.0
08 22:55 Calm 16.09 Overcast OVC130 15.1 7.6 61% 75.74 0.0
08 22:35 Calm 16.09 Overcast BKN130 OVC150 15.1 6.5 57% 75.77 0.0
08 22:15 Calm 16.09 Overcast OVC140 15.8 6 52% 75.77 0.0
08 21:55 Calm 16.09 Mostly Cloudy BKN150 BKN190 16.1 5 48% 75.77 0.0
08 21:35 Calm 16.09 Partly Cloudy SCT160 16.6 4.2 44% 75.77 0.0
08 21:15 S 6 16.09 Fair CLR 17.5 4.1 41% 75.77 0.0
08 20:55 SW 7 16.09 Partly Cloudy SCT160 18.2 4.2 40% 75.77 0.0
08 20:35 SW 9 16.09 Mostly Cloudy BKN160 18.9 4.3 38% 75.77 0.0
08 20:15 S 13 16.09 Overcast OVC150 19.8 4.6 37% 75.77 0.0
08 19:55 S 13 16.09 Mostly Cloudy BKN150 20.4 4.2 35% 75.77 0.0
08 19:35 S 13 16.09 Fair CLR 20.8 3.9 33% 75.79 0.0
08 19:15 SW 15 16.09 Fair CLR 21.2 3.7 32% 75.79 0.0
08 18:55 SW 19 G 28 16.09 Fair CLR 21.4 3.6 31% 75.82 0.0
08 18:35 SW 17 16.09 Fair CLR 21.9 4 31% 75.79 0.0
08 18:15 S 17 16.09 Fair CLR 21.8 4.2 32% 75.79 0.0
08 17:55 SW 20 16.09 Fair CLR 21.7 4 31% 75.79 0.0
08 17:35 S 17 G 33 16.09 Fair CLR 21.8 3.8 31% 75.79 0.0
08 17:15 SW 15 G 33 16.09 Fair CLR 21.9 3.8 31% 75.82 0.0
08 16:55 SW 15 G 30 16.09 Fair CLR 22 4.3 32% 75.84 0.0
08 16:35 SW 17 16.09 Fair CLR 21.7 3.9 31% 75.84 0.0
08 16:15 SW 19 16.09 Fair CLR 21.8 4.1 31% 75.87 0.0
08 15:55 SW 17 16.09 Fair CLR 22 5.2 34% 75.9 0.0
08 15:35 SW 15 G 31 16.09 Fair CLR 21.9 4.4 32% 75.95 0.0
08 15:15 Vrbl 11 16.09 Fair CLR 21.8 4.6 33% 75.95 0.0
08 14:55 S 13 16.09 Fair CLR 21.5 4.2 32% 75.92 0.0
08 14:35 SW 19 16.09 Fair CLR 21.8 4.4 32% 75.95 0.0
08 14:15 SW 15 16.09 Fair CLR 21.1 3.7 32% 75.97 0.0
08 13:55 S 15 16.09 Fair CLR 21 3.3 31% 76 0.0
08 13:35 S 17 16.09 Fair CLR 20.6 3.3 32% 76.02 0.0
08 13:15 S 15 16.09 Fair CLR 20.7 4.6 35% 76.07 0.0
08 12:55 SW 17 16.09 Fair CLR 20.2 3.3 33% 76.1 0.0
08 12:35 SW 15 16.09 Fair CLR 20.2 4.5 36% 76.12 0.0
08 12:15 SW 15 16.09 Fair CLR 19.7 4.4 37% 76.15 0.0
08 11:55 SW 17 16.09 Fair CLR 19.4 4.1 37% 76.17 0.0
08 11:35 Vrbl 9 16.09 Fair CLR 19.2 5.8 42% 76.2 0.0
08 11:15 SW 13 16.09 Fair CLR 18.2 4.7 41% 76.23 0.0
08 10:55 Vrbl 7 16.09 Fair CLR 18.1 5.4 43% 76.23 0.0
08 10:35 SW 11 16.09 Fair CLR 17.3 4.8 44% 76.23 0.0
08 10:15 SW 9 16.09 Fair CLR 16.4 5.4 48% 76.23 0.0
08 09:55 SW 9 16.09 Fair CLR 15.3 5.6 53% 76.23 0.0
08 09:35 S 9 16.09 Fair CLR 13.7 6.3 61% 76.23 0.0
08 09:15 S 7 16.09 Fair CLR 11.8 6.3 69% 76.23 0.0
08 08:55 Calm 16.09 Fair CLR 10.1 6.4 78% 76.25 0.0
08 08:35 Calm 16.09 Fair CLR 8.5 6.2 86% 76.25 0.0
08 08:15 SE 6 16.09 Fair CLR 7 6.6 97% 76.25 0.0
08 07:55 Calm 16.09 Fair CLR 5.7 5.7 100% 76.23 0.0
08 07:35 Calm 16.09 Fair CLR 5.1 5.1 100% 76.23 0.0
08 07:15 Calm 16.09 Fair CLR 3.7 3.7 100% 76.2 0.0
08 06:55 Calm 16.09 Fair CLR 3.5 3.5 100% 76.2 0.0
08 06:35 Calm 16.09 Fair CLR 3.6 3.6 100% 76.17 0.0
08 06:15 Calm 16.09 Fair CLR 3.7 3.7 100% 76.17 0.0
08 05:55 Calm 16.09 Fair CLR 3.5 3.5 100% 76.17 0.0
08 05:35 Calm 16.09 Fair CLR 3.9 3.9 100% 76.2 0.0
08 05:15 Calm 16.09 Fair CLR 4 4 100% 76.17 0.0
08 04:55 Calm 16.09 Fair CLR 4.3 4.3 100% 76.2 0.0
08 04:35 Calm 16.09 Fair CLR 4.3 4.3 100% 76.2 0.0
08 04:15 Calm 16.09 Fair CLR 4.4 4.4 100% 76.2 0.0
08 03:55 Calm 16.09 Fair CLR 4.5 4.5 100% 76.2 0.0
08 03:35 Calm 14.48 Fair CLR 4.4 4.4 100% 76.2 0.0
08 03:15 Calm 16.09 Fair CLR 4.7 4.7 100% 76.2 0.0
08 02:55 Calm 16.09 Fair CLR 4.8 4.8 100% 76.2 0.0
08 02:35 Calm 14.48 Fair CLR 5 5 100% 76.2 0.0
08 02:15 Calm 16.09 Fair CLR 5.1 5.1 100% 76.2 0.0
08 01:55 Calm 16.09 Fair CLR 5.4 5.4 100% 76.2 0.0
08 01:35 Calm 16.09 Fair CLR 5.6 5.6 100% 76.23 0.0
08 01:15 Calm 16.09 Fair CLR 6.1 6 99% 76.23 0.0
08 00:55 Calm 16.09 Fair CLR 6.2 6.2 100% 76.23 0.0
08 00:35 Calm 16.09 Fair CLR 6.3 6.3 100% 76.23 0.0
08 00:15 Calm 16.09 Fair CLR 6.8 5.3 90% 76.23 0.0
07 23:55 Calm 16.09 Fair CLR 7.2 5.5 89% 76.23 0.0
07 23:35 Calm 16.09 Fair CLR 7.3 5.3 87% 76.23 0.0
07 23:15 Calm 16.09 Fair CLR 8.3 5.5 83% 76.23 0.0
07 22:55 W 6 16.09 Fair CLR 9.3 4.6 73% 76.23 0.0
07 22:35 W 7 16.09 Fair CLR 8.8 7.5 92% 8 76.2 0.0
07 22:15 Calm 16.09 Fair CLR 9.1 7.2 88% 76.17 0.0
07 21:55 Calm 16.09 Fair CLR 10.3 6 75% 76.17 0.0
07 21:35 Calm 16.09 Fair CLR 10.8 6.3 74% 76.15 0.0
07 21:15 Calm 14.48 Fair CLR 11.9 3.7 58% 76.12 0.0
07 20:55 Calm 16.09 Fair CLR 12.7 2.5 50% 76.12 0.0
07 20:35 Calm 14.48 Fair CLR 15 0 36% 76.1 0.0
07 20:15 Calm 16.09 Fair CLR 15.7 -0.1 34% 76.1 0.0
07 19:55 NW 7 16.09 Fair CLR 16 -0.9 32% 76.07 0.0
07 19:35 W 7 16.09 Fair CLR 16.5 -1.1 30% 76.07 0.0
07 19:15 W 11 16.09 Fair CLR 17 -1 30% 76.07 0.0
07 18:55 W 7 16.09 Fair CLR 17.1 -1.9 27% 76.1 0.0
07 18:35 NW 9 16.09 Fair CLR 17.2 -1.8 28% 76.1 0.0
07 18:15 Vrbl 7 16.09 Fair CLR 17.4 -2.1 27% 76.07 0.0
07 17:55 Vrbl 7 16.09 Fair CLR 17.4 -2.3 26% 76.07 0.0
07 17:35 NW 15 16.09 Fair CLR 17.7 -2 26% 76.07 0.0
07 17:15 Vrbl 7 16.09 Fair CLR 17.5 -2.6 25% 76.07 0.0
07 16:15 N 17 16.09 Fair CLR 17.5 -2.3 26% 76.07 0.0
07 15:55 NW 11 16.09 Fair CLR 17.2 -2.1 27% 76.1 0.0
07 15:35 N 19 16.09 Fair CLR 17.7 -1.7 27% 76.1 0.0
07 15:15 N 13 16.09 Fair CLR 17.2 -1.4 28% 76.1 0.0
07 14:55 NW 13 16.09 Fair CLR 17.2 -1.1 29% 76.1 0.0
07 14:35 Vrbl 6 16.09 Fair CLR 16.3 -1.6 30% 76.12 0.0
07 14:15 Vrbl 11 16.09 Fair CLR 16.6 -0.3 32% 76.12 0.0
07 13:55 N 13 16.09 Fair CLR 16.2 0 33% 76.12 0.0
07 13:35 NE 13 16.09 Fair CLR 15.6 -0.9 33% 76.15 0.0
07 13:15 N 17 16.09 Fair CLR 15.9 -0.9 32% 76.17 0.0
07 12:55 Vrbl 7 16.09 Fair CLR 15.1 -1 33% 76.2 0.0
07 12:35 N 13 16.09 Fair CLR 15.6 -0.6 33% 76.2 0.0
07 12:15 NW 15 16.09 Fair CLR 15.2 -0.2 35% 76.23 0.0
07 11:55 NW 11 16.09 Fair CLR 14.6 -0.2 37% 76.23 0.0
07 11:35 N 15 16.09 Fair CLR 14.4 0.4 39% 76.23 0.0
07 11:15 Vrbl 9 16.09 Fair CLR 14 -0.7 37% 76.23 0.0
07 10:55 N 17 16.09 Fair CLR 14 -0.2 38% 76.2 0.0
07 10:35 N 17 16.09 Fair CLR 13.5 -0.1 40% 76.2 0.0
07 10:15 N 17 16.09 Fair CLR 13.2 -0.7 39% 76.2 0.0
07 09:55 NE 15 16.09 Fair CLR 12.5 -0.2 42% 76.2 0.0
07 09:35 NE 15 16.09 Fair CLR 12.3 0.8 46% 76.2 0.0
07 09:15 N 17 16.09 Fair CLR 11.6 1.2 49% 76.2 0.0
07 08:55 N 15 16.09 Fair CLR 10.8 2.6 57% 76.2 0.0
07 08:35 N 15 16.09 Fair CLR 10.3 3.4 63% 76.2 0.0
07 08:15 N 15 16.09 Fair CLR 9.6 4.4 70% 8 76.2 0.0
07 07:55 N 11 16.09 Fair CLR 8.9 5.1 77% 7 76.2 0.0
07 07:35 N 13 16.09 A Few Clouds FEW050 8.4 5.5 82% 7 76.2 0.0
07 07:15 N 13 16.09 Partly Cloudy SCT050 8.2 5.6 84% 6 76.2 0.0
07 06:55 N 13 16.09 Fair CLR 8 5.6 85% 6 76.17 0.0
07 06:35 N 11 14.48 Partly Cloudy SCT055 8.1 5.9 86% 6 76.15 0.0
07 06:15 N 13 16.09 Overcast OVC055 8.2 6.3 88% 6 76.15 0.0
07 05:55 N 9 16.09 Overcast OVC055 8.3 6.7 90% 7 76.12 0.0
07 05:35 N 7 16.09 Mostly Cloudy BKN055 8.6 7.1 90% 8 76.15 0.0
07 05:15 N 6 16.09 Mostly Cloudy BKN055 8.3 8.1 99% 76.12 0.0
07 04:55 Calm 16.09 Partly Cloudy SCT140 7.8 7.8 100% 76.12 0.0
07 04:35 Calm 16.09 Overcast OVC130 7.8 7.8 100% 76.12 0.0
07 04:15 Calm 16.09 Mostly Cloudy BKN140 8 7.8 99% 76.12 0.0
07 03:55 Calm 16.09 Mostly Cloudy BKN140 9.2 7.4 89% 76.12 0.0
07 03:35 Calm 16.09 Partly Cloudy SCT140 8.7 7.7 94% 76.1 0.0
07 03:15 NE 6 16.09 Mostly Cloudy BKN150 9.7 7.5 86% 76.1 0.0
07 02:55 N 6 16.09 Mostly Cloudy BKN140 9.9 7.6 86% 76.12 0.0
07 02:35 N 7 16.09 Mostly Cloudy BKN140 10 8 88% 9 76.12 0.0
07 02:15 N 6 16.09 Mostly Cloudy BKN140 9.9 8.3 90% 76.1 0.0
07 01:55 N 6 16.09 Overcast BKN140 OVC160 10 9.1 94% 76.12 0.0
07 01:35 NW 7 16.09 Mostly Cloudy BKN150 10.7 8.3 85% 76.12 0.0
07 01:15 NW 6 16.09 Overcast OVC140 10.8 8.5 86% 76.12 0.0
07 00:55 Calm 16.09 Overcast OVC150 10.8 9.9 94% 76.1 0.0
07 00:35 Calm 16.09 Overcast OVC160 10.9 9.4 91% 76.1 0.0
07 00:15 Calm 16.09 Mostly Cloudy BKN150 10.6 10.4 99% 76.12 0.0
06 23:55 Calm 16.09 Mostly Cloudy BKN150 10.9 9.7 92% 76.12 0.0
06 23:35 Calm 16.09 Overcast OVC150 11.1 10.5 96% 76.15 0.0
06 23:15 Calm 16.09 Mostly Cloudy BKN160 11.2 10.3 94% 76.15 0.0
06 22:55 Calm 16.09 A Few Clouds FEW160 11.3 9.6 89% 76.12 0.0
06 22:35 NW 6 16.09 Mostly Cloudy BKN160 12.1 8.3 78% 76.12 0.0
06 22:15 NW 7 16.09 Overcast OVC160 12.2 8.9 80% 76.1 0.0
06 21:55 N 7 16.09 Overcast OVC170 12.3 9.2 82% 76.05 0.0
06 21:35 N 6 16.09 Overcast OVC170 12.9 8.8 76% 76.05 0.0
06 21:15 N 6 16.09 Overcast OVC170 13.3 7.8 70% 76.02 0.0
06 20:55 NW 6 16.09 Overcast FEW070 OVC170 13.2 8.8 75% 76.05 0.0
06 20:35 NW 6 16.09 Overcast BKN070 OVC170 13.8 7.3 65% 76.02 0.0
06 20:15 NW 6 16.09 Overcast OVC070 14.2 7.6 65% 76.05 0.0
06 19:55 NW 6 16.09 Overcast OVC065 14.6 5.8 56% 76.05 0.0
06 19:35 N 11 16.09 Overcast OVC055 14.9 5.2 53% 76 0.0
06 19:15 NW 6 14.48 Overcast OVC055 15 6.1 56% 76.02 0.0
06 18:55 Vrbl 6 14.48 Overcast OVC055 15.1 5.4 53% 76 0.0
06 18:35 N 7 14.48 Overcast BKN050 OVC150 15.5 6.4 55% 76 0.0
06 18:15 N 13 16.09 Overcast FEW065 SCT150 OVC190 15.7 5.7 52% 75.97 0.0
06 17:55 N 13 16.09 Overcast FEW048 BKN065 BKN170 OVC190 16.1 6.3 52% 75.92 0.0
06 17:35 N 11 16.09 Mostly Cloudy BKN049 BKN070 BKN170 15.9 6.5 54% 75.92 0.0
06 17:15 W 9 16.09 Overcast BKN050 OVC070 16.1 6.9 55% 76 0.0
06 16:55 Vrbl 6 16.09 Overcast OVC049 16.1 6.2 52% 76 0.0
06 16:35 NW 9 16.09 Overcast SCT048 OVC070 16.2 6.8 54% 75.97 0.0
06 16:15 NW 7 16.09 Overcast SCT047 OVC070 16 7.1 56% 75.97 0.0
06 15:55 N 11 16.09 Overcast OVC065 16.4 7.4 55% 75.97 0.0
06 15:35 NW 9 16.09 Overcast SCT050 OVC065 16.1 7.5 57% 76 0.0
06 15:15 Vrbl 9 16.09 Overcast FEW039 BKN050 OVC065 16.5 6.9 53% 75.97 0.0
06 14:55 N 11 16.09 Overcast SCT037 OVC049 16.6 7.5 55% 75.97 0.0
06 14:35 Vrbl 7 16.09 Overcast SCT036 OVC049 16.8 8.6 59% 75.95 0.0
06 14:15 Vrbl 6 16.09 Overcast BKN034 OVC050 16.2 8.8 62% 75.97 0.0
06 13:55 Vrbl 11 16.09 Mostly Cloudy BKN032 BKN050 15.5 8 61% 76 0.0
06 13:35 Vrbl 11 16.09 A Few Clouds FEW030 15.8 8.5 62% 75.97 0.0
06 13:15 N 11 16.09 A Few Clouds FEW030 15.4 8.6 64% 75.97 0.0
06 12:55 NE 11 16.09 Partly Cloudy FEW026 SCT350 14.4 8.4 67% 76 0.0
06 12:35 N 13 16.09 Partly Cloudy SCT026 14.1 8.6 70% 76 0.0
06 12:15 NW 9 16.09 Fair CLR 13.5 8.1 70% 76 0.0
06 11:55 N 11 16.09 Fair CLR 13.4 8.2 71% 76.02 0.0
06 11:35 NE 13 16.09 Fair CLR 13 7.4 69% 75.97 0.0
06 11:15 N 13 16.09 A Few Clouds FEW033 12.5 6.8 68% 75.97 0.0
06 10:55 NE 11 16.09 Mostly Cloudy BKN032 11.9 6.9 72% 75.95 0.0
06 10:35 Vrbl 9 16.09 Mostly Cloudy SCT033 BKN160 10.9 7.8 81% 75.95 0.0
06 10:15 N 11 16.09 Mostly Cloudy BKN034 BKN160 9.9 7.2 83% 9 75.95 0.0
06 09:55 NE 6 16.09 Mostly Cloudy FEW034 BKN160 BKN270 BKN290 9.5 6.5 82% 75.95 0.0
06 09:35 N 11 16.09 Mostly Cloudy FEW026 BKN160 BKN270 9.4 6.9 85% 8 75.92 0.0
06 09:15 NW 9 16.09 Mostly Cloudy FEW010 BKN026 9.4 8.7 95% 8 75.92 0.0
06 08:55 N 13 16.09 Overcast SCT008 BKN015 OVC025 9.6 9.6 100% 8 75.87 0.0
06 08:35 N 15 16.09 Overcast BKN008 BKN016 OVC025 9.6 9.6 100% 8 75.9 0.0
06 08:15 N 9 16.09 Overcast SCT009 SCT013 OVC024 9.7 9.7 100% 9 75.87 0.0
06 07:55 N 9 16.09 Overcast BKN006 OVC013 9.6 9.6 100% 9 75.84 0.0
06 07:35 N 13 16.09 Overcast OVC006 9.7 9.7 100% 8 75.82 0.0
06 07:15 N 11 14.48 Overcast OVC010 9.9 9.9 100% 9 75.79 0.0
06 06:55 N 11 14.48 Overcast OVC012 9.9 9.9 100% 9 75.77 0.0
06 06:35 N 13 16.09 Overcast OVC013 9.8 9.8 100% 8 75.72 0.0
06 06:15 N 13 16.09 Mostly Cloudy BKN012 BKN120 9.8 9.8 100% 8 75.69 0.0
06 05:55 N 13 12.87 Light Rain BKN008 OVC015 10.2 10.2 100% 75.69 0.0
06 05:35 N 13 11.27 Light Rain OVC006 10.3 10.3 100% 75.67 0.0 0.1
06 05:15 NW 13 11.27 Light Rain OVC006 10.4 10.4 100% 75.67 0.0 0.1
06 04:55 N 11 4.83 Rain Fog/Mist OVC006 10.6 10.6 100% 75.59 0.0 0.05
06 04:35 N 13 6.44 Rain Fog/Mist OVC006 10.8 10.8 100% 75.64 0.0 0.38
06 04:15 NW 7 4.02 Rain Fog/Mist BKN005 OVC018 10.9 10.9 100% 75.57 0.0 0.28
06 03:55 N 17 G 30 6.44 Light Rain Fog/Mist FEW006 OVC016 11.1 11.1 100% 75.54 0.0
06 03:35 N 19 G 31 4.83 Light Rain Fog/Mist SCT005 OVC013 11.5 11.5 100% 75.51 0.0 0.1
06 03:15 NW 13 8.05 Light Rain Fog/Mist SCT006 OVC011 15.1 15.1 100% 75.46 0.0 0.05
06 02:55 W 6 4.83 Light Rain Fog/Mist BKN006 BKN013 OVC019 15.1 15.1 100% 75.46 0.0 0.03
06 02:35 Calm 8.05 Light Rain Fog/Mist SCT010 OVC019 15.1 15.1 100% 75.44 0.0 0.1
06 01:55 NW 7 8.05 Rain Fog/Mist FEW016 BKN027 OVC032 15.3 15.3 100% 75.44 0.0 0.03
Date Time (edt) Wind (kph) Vis. (km) Weather Sky Cond. Air Dwpt Max. Min. Relative Humidity Wind Chill (°C) Heat Index (°C) altimeter (cm) sea level (mb) 1 hr 3 hr 6 hr
6 hour
Temperature (ºC) Pressure Precipitation (cm)